Regional Weather Roundup
Issued by NWS

Home | Current Version | Previous Version | Text Only | Print | Product List | Glossary On
Versions: 1 2 3 4 5 6 7 8 9 10 11 12 13 14 15 16 17 18 19 20 21 22 23 24 25 26 27 28 29 30 31 32 33 34 35 36 37 38 39 40 41 42 43 44 45 46 47 48 49 50
000
ASUS43 KLMK 201702
RWRKY
KENTUCKY REGIONAL WEATHER ROUNDUP
NATIONAL WEATHER SERVICE LOUISVILLE KY
1200 PM EST TUE FEB 20 2018

NOTE "FAIR" INDICATES FEW OR NO CLOUDS BELOW 12,000 FEET
WITH NO SIGNIFICANT WEATHER AND/OR OBSTRUCTIONS TO VISIBILITY.

KYZ001>023-026-027-061>063-070>075-201800-
WESTERN AND SOUTH CENTRAL KENTUCKY

CITY           SKY/WX    TMP DP  RH WIND       PRES   REMARKS
PADUCAH        FAIR      75  56  51 SW17G36   30.10S
HENDERSON      FAIR      73  57  57 S23G31    30.10S
OWENSBORO      FAIR      75  58  55 S17       30.12F
HOPKINSVILLE   FAIR      76  51  42 S18G28    30.16S
BOWLING GREEN  FAIR      75  58  55 S21G35    30.20S
GLASGOW        NOT AVBL
$$

KYZ024-025-028>034-038-045-046-053-201800-
NORTH CENTRAL KENTUCKY

CITY           SKY/WX    TMP DP  RH WIND       PRES   REMARKS
LOUISVILLE/SDF CLOUDY    77  54  44 S22G38    30.15S
LOUISVILLE/LOU FAIR      77  56  48 S17G32    30.15F
FORT KNOX      FAIR      75  55  48 S20G28    30.17S
$$

KYZ035>037-039>044-047>052-055>060-089>105-201800-
NORTHEAST KENTUCKY

CITY           SKY/WX    TMP DP  RH WIND       PRES   REMARKS
LEXINGTON      FAIR      76  55  48 S28G38    30.20S
COVINGTON      PTSUNNY   73  57  57 S24G33    30.14F
FRANKFORT      FAIR      76  54  46 S18G37    30.17S
$$

KYZ054-064>069-076>088-106>120-201800-
SOUTHEAST KENTUCKY

CITY           SKY/WX    TMP DP  RH WIND       PRES   REMARKS
JACKSON        FAIR      75  52  44 S15G26    30.27F
LONDON         FAIR      76  53  44 SW18G35   30.27F
SOMERSET       PTSUNNY   73  55  53 MISG      30.27F
MIDDLESBORO    FAIR      72  56  58 S13G21    30.32F
MONTICELLO     NOT AVBL
$$




USA.gov is the U.S. government's official web portal to all federal, state and local government web resources and services.